Location: Shepherdstown, WV
(39.4326°N, 77.8042°W)
Time: 00:23:45
(UTC-04:00)

S-56A Canister/Altair - Pass Details

Date: 27 July 2021
Orbit: 632 x 2500 km, 38.9° (Epoch: 27 September)

Event Time Altitude Azimuth Distance (km) Brightness Sun altitude
Rises 00:31:51 0° 287° (WNW) 5,762 12.4 -30.4°
Reaches altitude 10° 00:36:49 10° 276° (W) 4,479 11.6 -30.6°
Enters shadow 00:44:42 25° 235° (SW) 2,923 10.2 -30.9°
